Hourly Data Report for September 01, 2006

TORONTO CITY
ONTARIO

43°40'00.000" N
79°24'00.000" W
112.50 m
6158355
71508
XTO

Download Data

Hourly Data (September 2006)
Hourly Data Report for September 1, 2006
TIME
LST
Temp Definition
°C
Dew Point Definition
°C
Rel Hum Definition
%
Precip. Amount Definition
mm

Wind Dir Definition
10's deg

Wind Spd Definition
km/h
Visibility Definition
km
Stn Press Definition
kPa
Hmdx Definition


Wind Chill Definition


Weather Definition


00:00 16.8 13.7 82   LegendMM LegendMM   101.14     LegendNANA
01:00 16.4 12.8 79   LegendMM LegendMM   101.11     LegendNANA
02:00 16.2 11.9 76   LegendMM LegendMM   101.12     LegendNANA
03:00 16.3 12.3 77   LegendMM LegendMM   101.10     LegendNANA
04:00 16.0 12.2 78   LegendMM LegendMM   101.13     LegendNANA
05:00 15.5 11.5 77   LegendMM LegendMM   101.14     LegendNANA
06:00 15.4 11.5 78   LegendMM LegendMM   101.17     LegendNANA
07:00 16.0 12.1 78   LegendMM LegendMM   101.20     LegendNANA
08:00 17.7 13.9 78   LegendMM LegendMM   101.18     LegendNANA
09:00 19.0 15.9 82   LegendMM LegendMM   101.17     LegendNANA
10:00 19.6 16.2 81   LegendMM LegendMM   101.17     LegendNANA
11:00 21.0 13.4 62   LegendMM LegendMM   101.17     LegendNANA
12:00 21.4 15.9 71   LegendMM LegendMM   101.12 26   LegendNANA
13:00 21.2 15.3 69   LegendMM LegendMM   101.11 25   LegendNANA
14:00 20.5 14.4 68   LegendMM LegendMM   101.11     LegendNANA
15:00 20.5 14.0 66   LegendMM LegendMM   101.06     LegendNANA
16:00 20.6 14.4 68   LegendMM LegendMM   101.07     LegendNANA
17:00 20.2 15.1 72   LegendMM LegendMM   101.03     LegendNANA
18:00 19.8 15.6 77   LegendMM LegendMM   101.03     LegendNANA
19:00 19.6 14.9 74   LegendMM LegendMM   101.01     LegendNANA
20:00 19.7 15.3 76   LegendMM LegendMM   101.04     LegendNANA
21:00 19.6 15.4 77   LegendMM LegendMM   101.06     LegendNANA
22:00 19.3 15.0 76   LegendMM LegendMM   101.04     LegendNANA
23:00 19.1 14.8 76   LegendMM LegendMM   101.03     LegendNANA

Notes on Data Quality.

Legend

  • E = Estimated
  • M = Missing
  • NA = Not Available*
  • [empty] = Indicates an unobserved value
Date modified: